Weather History for 94578 - April, 2013

Change the Weather History Date:

Monday, April 29, 2013

  Actual Average Record
Temperature  
Mean Temperature 68 °F -  
Max Temperature 78 °F 74 °F - ()
Min Temperature 59 °F 57 °F - ()
Cooling Degree Days 4    
Growing Degree Days 18 (Base 50)    
Moisture  
Dew Point 61 °F    
Average Humidity 75    
Maximum Humidity 94    
Minimum Humidity 40    
Precipitation  
Precipitation 0.00 in 0.13 in - ()
Sea Level Pressure  
Sea Level Pressure 30.17 in    
Wind  
Wind Speed 7 mph ()    
Max Wind Speed 13 mph    
Max Gust Speed -    
Visibility 8.4 miles    
Events      
T = Trace of Precipitation, MM = Missing Value Source: Averaged Metar Reports

Daily Weather History Graph

Daily Weather History Graph

Search for Another Location

Airport or City:

Trip Planner

Search our weather history database for the weather conditions in past years. The results will help you decide how hot, cold, wet, or windy it might be!

Date:

Astronomy

Apr. 29, 2013 Rise Set
Actual Time 6:11 AM AEST 5:17 PM AEST
Civil Twilight 5:47 AM AEST 5:41 PM AEST
Nautical Twilight 5:19 AM AEST 6:09 PM AEST
Astronomical Twilight 4:52 AM AEST 6:36 PM AEST
Moon 8:29 PM AEST (4/29) 9:28 AM AEST (4/29)
Length of Visible Light 11h 54m
Length of Day
11h 06m
Waning Gibbous, 85% of the Moon is Illuminated
Apr 29
Waning Gibbous
May 2
Last Quarter
May 10
New
May 18
First Quarter
May 25
Full

Hourly Weather History & Observations

Time (AEST) Temp. Dew Point Humidity Pressure Visibility Wind Dir Wind Speed Gust Speed Precip Events Conditions
12:00 AM 61 °F 59 °F 90% 30.16 in 19 mi SSW 4.6 mph - -   Partly Cloudy
12:00 AM 60.8 °F 59.0 °F 94% 30.15 in - SSW 4.6 mph - N/A   Clear
12:30 AM 60.8 °F 59.0 °F 94% 30.12 in - SSW 4.6 mph - N/A   Clear
1:00 AM 62 °F 60 °F 90% 30.15 in - SSW 5.8 mph - -  
1:00 AM 62.6 °F 60.8 °F 94% 30.12 in - SSW 5.8 mph - N/A   Clear
1:30 AM 60.8 °F 59.0 °F 94% 30.15 in 6.2 mi SSW 8.1 mph - N/A   Partly Cloudy
2:00 AM 62.6 °F 59.0 °F 88% 30.12 in 6.2 mi SSW 6.9 mph - N/A   Partly Cloudy
2:30 AM 60.8 °F 59.0 °F 94% 30.12 in 6.2 mi SSW 9.2 mph - N/A   Partly Cloudy
3:00 AM 62 °F 59 °F 87% 30.14 in 19 mi SSW 10.4 mph - -   Partly Cloudy
3:00 AM 62.6 °F 59.0 °F 88% 30.12 in 6.2 mi SSW 10.4 mph - N/A   Partly Cloudy
3:30 AM 60.8 °F 59.0 °F 94% 30.12 in 6.2 mi SSW 9.2 mph - N/A   Partly Cloudy
4:00 AM 60 °F 58 °F 92% 30.14 in - SSW 9.2 mph - -  
4:00 AM 60.8 °F 59.0 °F 94% 30.12 in 6.2 mi SSW 9.2 mph - N/A   Partly Cloudy
4:30 AM 60.8 °F 59.0 °F 94% 30.12 in 6.2 mi SSW 8.1 mph - N/A   Partly Cloudy
5:00 AM 60.8 °F 59.0 °F 94% 30.15 in 6.2 mi SSW 10.4 mph - N/A   Partly Cloudy
5:30 AM 60.8 °F 59.0 °F 94% 30.15 in 6.2 mi SSW 10.4 mph - N/A   Scattered Clouds
6:00 AM 61 °F 59 °F 90% 30.18 in 19 mi SSW 9.2 mph - -   Partly Cloudy
6:00 AM 60.8 °F 59.0 °F 94% 30.15 in 6.2 mi SSW 9.2 mph - N/A   Partly Cloudy
6:30 AM 60.8 °F 59.0 °F 94% 30.18 in 6.2 mi SSW 9.2 mph - N/A   Partly Cloudy
7:00 AM 62 °F 59 °F 87% 30.20 in - SSW 10.4 mph - -  
7:00 AM 62.6 °F 59.0 °F 88% 30.18 in 6.2 mi SSW 10.4 mph - N/A   Partly Cloudy
7:30 AM 64.4 °F 60.8 °F 88% 30.21 in 6.2 mi SSW 10.4 mph - N/A   Partly Cloudy
8:00 AM 66.2 °F 60.8 °F 83% 30.21 in 6.2 mi SSW 10.4 mph - N/A   Partly Cloudy
8:30 AM 69.8 °F 60.8 °F 73% 30.21 in 6.2 mi SSW 12.7 mph - N/A   Partly Cloudy
9:00 AM 71 °F 61 °F 62% 30.22 in 19 mi SSW 12.7 mph - -   Partly Cloudy
9:00 AM 71.6 °F 60.8 °F 69% 30.21 in 6.2 mi SSW 12.7 mph - N/A   Partly Cloudy
9:30 AM 73.4 °F 60.8 °F 65% 30.21 in 6.2 mi SSW 8.1 mph - N/A   Partly Cloudy
10:00 AM 75 °F 62 °F 54% 30.22 in - SSW 9.2 mph - -  
10:00 AM 75.2 °F 62.6 °F 65% 30.21 in 6.2 mi SSW 9.2 mph - N/A   Partly Cloudy
10:30 AM 77.0 °F 62.6 °F 61% 30.21 in 6.2 mi SW 9.2 mph - N/A   Partly Cloudy
11:00 AM 78.8 °F 64.4 °F 61% 30.18 in 6.2 mi ESE 5.8 mph - N/A   Scattered Clouds
11:30 AM 77.0 °F 62.6 °F 61% 30.18 in 6.2 mi ESE 5.8 mph - N/A   Partly Cloudy
12:00 PM 77 °F 61 °F 48% 30.18 in 19 mi East 5.8 mph - -   Partly Cloudy
12:00 PM 77.0 °F 60.8 °F 57% 30.15 in 6.2 mi East 5.8 mph - N/A   Partly Cloudy
12:30 PM 77.0 °F 62.6 °F 61% 30.15 in 6.2 mi ESE 5.8 mph - N/A   Scattered Clouds
1:00 PM 78 °F 63 °F 51% 30.17 in - ENE 8.1 mph - -  
1:00 PM 78.8 °F 62.6 °F 57% 30.15 in 6.2 mi ENE 8.1 mph - N/A   Partly Cloudy
1:30 PM 77.0 °F 60.8 °F 57% 30.15 in 6.2 mi ENE 9.2 mph - N/A   Partly Cloudy
2:00 PM 78.8 °F 62.6 °F 57% 30.15 in 6.2 mi East 8.1 mph - N/A   Partly Cloudy
2:30 PM 78.8 °F 60.8 °F 54% 30.15 in 6.2 mi NE 10.4 mph - N/A   Partly Cloudy
3:00 PM 78 °F 58 °F 40% 30.17 in 19 mi NE 9.2 mph - -   Smoke
3:00 PM 77.0 °F 59.0 °F 54% 30.15 in 6.2 mi NE 9.2 mph - N/A   Partly Cloudy
3:30 PM 77.0 °F 60.8 °F 57% 30.15 in 6.2 mi ENE 8.1 mph - N/A   Partly Cloudy
4:00 PM 76 °F 60 °F 47% 30.17 in - ENE 8.1 mph - -  
4:00 PM 77.0 °F 59.0 °F 54% 30.15 in 6.2 mi ENE 8.1 mph - N/A   Partly Cloudy
4:30 PM 75.2 °F 62.6 °F 65% 30.15 in 6.2 mi ENE 6.9 mph - N/A   Partly Cloudy
5:00 PM 73.4 °F 62.6 °F 69% 30.15 in 6.2 mi East 5.8 mph - N/A   Partly Cloudy
5:30 PM 71.6 °F 62.6 °F 73% 30.15 in 6.2 mi East 5.8 mph - N/A   Partly Cloudy
6:00 PM 72 °F 64 °F 69% 30.19 in 19 mi ESE 5.8 mph - -   Partly Cloudy
6:00 PM 71.6 °F 64.4 °F 78% 30.18 in 6.2 mi ESE 5.8 mph - N/A   Partly Cloudy
6:30 PM 71.6 °F 64.4 °F 78% 30.18 in - East 4.6 mph - N/A   Clear
7:00 PM 71 °F 64 °F 71% 30.21 in - ESE 5.8 mph - -  
7:00 PM 71.6 °F 64.4 °F 78% 30.18 in - ESE 5.8 mph - N/A   Clear
7:30 PM 71.6 °F 64.4 °F 78% 30.21 in - East 4.6 mph - N/A   Clear
8:00 PM 71.6 °F 64.4 °F 78% 30.21 in 6.2 mi ESE 4.6 mph - N/A   Partly Cloudy
8:30 PM 71.6 °F 64.4 °F 78% 30.21 in - ESE 4.6 mph - N/A   Clear
9:00 PM 72 °F 64 °F 68% 30.22 in 19 mi ESE 5.8 mph - -   Partly Cloudy
9:00 PM 73.4 °F 64.4 °F 73% 30.21 in 6.2 mi ESE 5.8 mph - N/A   Scattered Clouds
9:30 PM 71.6 °F 64.4 °F 78% 30.21 in 6.2 mi ESE 5.8 mph - N/A   Partly Cloudy
10:00 PM 72 °F 65 °F 72% 30.23 in - SE 3.5 mph - -  
10:00 PM 71.6 °F 64.4 °F 78% 30.21 in 6.2 mi SE 3.5 mph - N/A   Partly Cloudy
10:30 PM 71.6 °F 64.4 °F 78% 30.21 in 6.2 mi ESE 4.6 mph - N/A   Partly Cloudy
11:00 PM 69.8 °F 66.2 °F 88% 30.21 in - SE 4.6 mph - N/A   Clear
11:30 PM 66.2 °F 62.6 °F 88% 30.21 in - SSW 6.9 mph - N/A   Clear